Skip Page Navigation
NASA JPL Caltech
NASA Logo - Jet Propulsion Laboratory + View the NASA Portal
+ Center for Near-Earth Object Studies
JPL Home Earth Solar System Stars & Galaxies Technology
JPL Solar System Dynamics
BODIES ORBITS EPHEMERIDES TOOLS PHYSICAL DATA DISCOVERY FAQ SITE MAP
JPL Small-Body Database Browser
Search: [ help ]  
105708 (2000 SB71)
Classification: Main-belt Asteroid          SPK-ID: 2105708
Ephemeris | Orbit Diagram | Orbital Elements | Mission Design | Physical Parameters | Discovery Circumstances | Close-Approach Data ]

[ hide orbit diagram ]

For accurate long-term ephemerides, please instead use our Horizons system.This orbit viewer was implemented using two-body methods, and hence should not be used for determining accurate long-term trajectories (over several years or decades) or planetary encounter circumstances.


[ revert to old Java-based viewer ]

Orbital Elements at Epoch 2459000.5 (2020-May-31.0) TDB
Reference: JPL 11 (heliocentric ecliptic J2000)
 Element Value Uncertainty (1-sigma)   Units 
e .1925853693478093 5.948e-08  
a 3.095168829325382 2.9386e-08 au
q 2.499084597135927 1.9038e-07 au
i 2.393022168488288 5.7436e-06 deg
node 75.43476999478416 0.0001512 deg
peri 306.5750434691305 0.00015185 deg
M 213.2657904527517 1.9788e-05 deg
tp 2459811.188136327739
(2022-Aug-19.68813633)
0.00011812 TDB
period 1988.95492726944
5.45
2.8325e-05
7.755e-08
d
yr
n .1809995767446727 2.5776e-09 deg/d
Q 3.691253061514837 3.5045e-08 au
  Orbit Determination Parameters
   # obs. used (total)      465  
   data-arc span      7156 days (19.59 yr)  
   first obs. used      2000-09-23  
   last obs. used      2020-04-27  
   planetary ephem.      DE431  
   SB-pert. ephem.      SB431-N16  
   condition code      0  
   norm. resid. RMS      .56205  
   source      ORB  
   producer      Otto Matic  
   solution date      2020-May-20 18:31:59  

Additional Information
 Earth MOID = 1.5032 au 
 Jupiter MOID = 1.76684 au 
 T_jup = 3.193 
[ show covariance matrix ]

Ephemeris | Orbit Diagram | Orbital Elements | Mission Design | Physical Parameters | Discovery Circumstances | Close-Approach Data ]

Physical Parameter Table
Parameter Symbol Value Units Sigma Reference Notes
absolute magnitude H 15.0   n/a MPO432579  

105708 (2000 SB71)          Discovered 2000-Sep-24 by LINEAR at Socorro
Reference: 20051019/Numbers.arcLast Updated: 2005-10-26

[ show close-approach data ]
Alternate Designations
 2000 SB71 = 2002 AG108 
Ephemeris | Orbit Diagram | Orbital Elements | Mission Design | Physical Parameters | Discovery Circumstances | Close-Approach Data ]
ABOUT SSD CREDITS/AWARDS PRIVACY/COPYRIGHT GLOSSARY LINKS
FirstGov 2020-Aug-09 00:38 UT
(server date/time)  
NASA Home Page
Site Manager:   Ryan S. Park
Webmaster  Alan B. Chamberlin